Location: Prairie Dale
(45.6972°N, 104.5033°W)
Time: 23:42:57
(UTC+00:00)

EO-79 - Pass Details

Date: 08 July 2022
Orbit: 588 x 603 km, 98.0° (Epoch: 18 August)

Event Time Altitude Azimuth Distance (km) Brightness Sun altitude
Rises 10:09:35 0° 356° (N) 2,863 ? -9.8°
Reaches altitude 10° 10:12:37 10° 332° (NNW) 1,957 ? -9.4°
Maximum altitude 10:14:54 14° 299° (WNW) 1,681 ? -9.2°
Drops below altitude 10° 10:17:12 10° 266° (W) 1,953 ? -8.9°
Enters shadow 10:18:06 - 257° (WSW) 2,180 ? -8.8°
